Location: Bégole
(43.1574°N, 0.3291°E)
Time: 06:23:24
(UTC+00:00)

ATLAS CENTAUR R/B - Pass Details

Date: 28 January 2023
Orbit: 450 x 653 km, 64.7° (Epoch: 19 March)

Event Time Altitude Azimuth Distance (km) Brightness Sun altitude
Rises 19:10:12 0° 235° (SW) 2,983 6.0 -22.8°
Reaches altitude 10° 19:12:40 10° 244° (WSW) 2,068 5.2 -23.3°
Maximum altitude 19:17:03 37° 311° (NW) 1,007 2.9 -24.1°
Enters shadow 19:19:06 25° 0° (N) 1,305 3.1 -24.4°
